Location: Eastchurch
(51.4000°N, 0.8667°E)
Time: 07:14:38
(UTC+00:00)

CARTOSAT-1 - Pass Details

Date: 19 January 2026
Orbit: 594 x 598 km, 97.5° (Epoch: 18 February)

Event Time Altitude Azimuth Distance (km) Brightness Sun altitude
Rises 18:04:03 0° 149° (SSE) 2,834 6.8 -15.2°
Reaches altitude 10° 18:06:15 10° 143° (SE) 1,936 5.9 -15.5°
Maximum altitude 18:10:17 47° 70° (ENE) 799 3.7 -16.1°
Drops below altitude 10° 18:14:21 10° 357° (N) 1,949 6.0 -16.7°
Sets 18:16:35 0° 351° (N) 2,856 7.0 -17.1°
